Location: Ferchesar
(52.6477°N, 12.4298°E)
Time: 17:33:51
(UTC+01:00)

Transit 2A Rocket - Visible Passes

Search period start: 27 February 2021 00:00
Search period end: 09 March 2021 00:00
Orbit: 594 x 909 km, 66.7° (Epoch: 26 February)

Date Brightness Start Highest point End Pass type
(mag) Time Alt. Az. Time Alt. Az. Time Alt. Az.
27 Feb 6.9 03:19:42 19° ESE 03:19:42 19° ESE 03:22:49 10° ENE visible
27 Feb 4.6 04:59:37 36° SW 05:01:36 81° NW 05:06:10 10° NE visible
28 Feb 7.6 02:38:31 11° E 02:38:31 11° E 02:38:49 10° E visible
28 Feb 4.9 04:18:26 59° SSE 04:19:01 66° SE 04:23:32 10° NE visible
28 Feb 5.7 05:58:21 13° W 06:01:52 30° NW 06:05:50 10° NNE visible
01 Mar 5.9 03:37:11 38° E 03:37:11 38° E 03:40:48 10° NE visible
01 Mar 5.2 05:17:05 27° W 05:19:04 41° NW 05:23:21 10° NNE visible
02 Mar 7.0 02:55:51 20° E 02:55:51 20° E 02:57:53 10° ENE visible
02 Mar 4.7 04:35:46 56° W 04:36:20 61° NW 04:40:49 10° NE visible
02 Mar 6.3 06:16:18 10° WNW 06:19:42 20° NNW 06:22:58 10° NNE visible
03 Mar 7.7 02:14:29 10° ENE 02:14:29 10° ENE 02:14:32 10° ENE visible
03 Mar 5.0 03:54:23 65° NE 03:54:23 65° NE 03:58:14 10° NE visible
03 Mar 6.0 05:34:17 16° WNW 05:36:45 25° NNW 05:40:27 10° NNE visible
04 Mar 6.3 03:12:58 33° ENE 03:12:58 33° ENE 03:15:35 10° NE visible
04 Mar 5.6 04:52:51 30° WNW 04:53:52 33° NW 04:57:56 10° NNE visible
05 Mar 7.2 02:31:29 18° ENE 02:31:29 18° ENE 02:32:47 10° NE visible
05 Mar 5.2 04:11:23 46° NNW 04:11:23 46° NNW 04:15:26 10° NNE visible
05 Mar 6.5 05:51:36 10° WNW 05:54:39 17° NNW 05:57:36 10° NNE visible
06 Mar 5.7 03:29:53 42° NNE 03:29:53 42° NNE 03:32:53 10° NE visible
06 Mar 6.3 05:09:47 17° WNW 05:11:39 21° NNW 05:15:03 10° NNE visible
07 Mar 6.7 02:48:21 26° NE 02:48:21 26° NE 02:50:17 10° NE visible
07 Mar 5.9 04:28:15 27° NW 04:28:43 27° NNW 04:32:33 10° NNE visible
08 Mar 7.4 02:06:48 15° NE 02:06:48 15° NE 02:07:35 10° NE visible
08 Mar 5.8 03:46:41 34° NNW 03:46:41 34° NNW 03:50:02 10° NNE visible
08 Mar 6.7 05:26:54 10° NW 05:29:37 15° NNW 05:32:17 10° NNE visible
